Regional Weather Roundup
Issued by NWS Glasgow, MT

Home | Current Version | Previous Version | Text Only | Print | Product List | Glossary On
Versions: 1 2 3 4 5 6 7 8 9 10 11 12 13 14 15 16 17 18 19 20 21 22 23 24 25 26 27
000
ASUS45 KGGW 251015
RWRGGW
HOURLY WEATHER ROUNDUP FOR NORTHEAST MONTANA
NATIONAL WEATHER SERVICE GLASGOW MONTANA
400 AM MDT SAT OCT 25 2014

NOTE: "FAIR" INDICATES FEW OR NO CLOUDS BELOW 12,000 FEET WITH NO
SIGNIFICANT WEATHER AND/OR OBSTRUCTIONS TO VISISBILITY.

NORTHEAST MONTANA


CITY           SKY/WX    TMP DP  RH WIND       PRES   REMARKS
GLASGOW        CLOUDY    42  32  67 SE3       30.09S
PLENTYWOOD       N/A     34  27  75 N3          N/A
WOLF POINT     CLOUDY    42  34  73 CALM      30.11R
JORDAN           N/A     31  28  89 CALM      30.10F
WINNETT          N/A     36  35  96 CALM        N/A
SIDNEY         CLOUDY    45  34  65 CALM      30.12F
GLENDIVE       CLOUDY    43  32  65 S6        30.13S
MALTA            N/A     43  35  73 CALM        N/A

FORT PECK REPORTS


CITY           SKY/WX    TMP DP  RH WIND       PRES   REMARKS
FORT PECK        N/A     51  36  56 S3          N/A
THE PINES        N/A     50  37  61 SW3         N/A

SOUTHEAST MONTANA


CITY           SKY/WX    TMP DP  RH WIND       PRES   REMARKS
BILLINGS       PTCLDY    41  34  76 SW7       30.09F
MILES CITY     PTCLDY    43  33  68 SE6       30.11F
BAKER          CLEAR     34  28  79 SE5       30.14S
LIVINGSTON     CLEAR     33  31  92 SW5       30.10S

CENTRAL MONTANA


CITY           SKY/WX    TMP DP  RH WIND       PRES   REMARKS
HAVRE          CLOUDY    42  34  73 E5        30.07F
LEWISTOWN      CLOUDY    40  36  86 SE7       30.06F
GREAT FALLS    MOCLDY    42  39  89 E5        30.01F
CUT BANK       CLOUDY    42  32  67 NE6       30.02F
HELENA         CLOUDY    40  36  86 CALM      30.04F
BUTTE          PTCLDY    31  31 100 CALM      30.08F
BOZEMAN        PTCLDY    31  30  96 SE3       30.08S

WESTERN MONTANA


CITY           SKY/WX    TMP DP  RH WIND       PRES   REMARKS
MISSOULA       CLOUDY    42  42 100 CALM      30.00F FOG
KALISPELL      NOT AVBL

NORTH DAKOTA


CITY           SKY/WX    TMP DP  RH WIND       PRES   REMARKS
WILLISTON      MOCLDY    41  30  65 CALM      30.10R
DICKINSON      MOCLDY    44  32  62 W6        30.10R
MINOT          MOCLDY    43  30  60 W12       30.06R
BISMARCK       MOCLDY    45  32  60 NW6       30.10S

SOUTHERN SASKATCHEWAN


CITY           SKY/WX    TMP DP  RH WIND       PRES   REMARKS
REGINA         CLEAR     28  27  93 W5        30.06S
ESTEVAN        PTCLDY    30  27  86 NW9       30.07S
SWIFT CURRENT  CLOUDY    34  28  80 SW10      30.05F




USA.gov is the U.S. government's official web portal to all federal, state and local government web resources and services.